Marselisborg — A8VR8 — position and weather

sailwx.info

Track history (hours):
 
Tides and Currents Weather Stations Pressure Air Temp Water Temp Dewpoint Dewpoint Depression Visibility Wind Speed Wind Dir Waves Ship Positions

Marselisborg

Last reported at 2014-Oct-23 21:32 UTC. Time now 2014-Oct-23 22:05 UTC.
Position N 49°09' W 123°32'.

Length 138 m; draft 6.6 m.

Type: Ship. MMSI: 636092036.

Date/timePositionNaut miles runAvg speedWind from/ knotsBaromVisibWave heightAir tempDewpointWater temp
2014-Oct-23 21:32N 49°09' W 123°32'1111.3
2014-Oct-23 20:33N 49°08' W 123°15'10 9.7
2014-Oct-23 19:33N 49°09' W 123°00'4 3.5
2014-Oct-23 18:24N 49°11' W 122°55'0 0.0
2014-Oct-23 17:24N 49°11' W 122°55'0 0.0
2014-Oct-23 16:18N 49°11' W 122°55'0 0.0
2014-Oct-23 15:06N 49°11' W 122°55'0 0.0
2014-Oct-23 14:30N 49°11' W 122°55'0 0.0
2014-Oct-23 13:30N 49°11' W 122°55'0 0.0
2014-Oct-23 12:30N 49°11' W 122°55'0 0.0
2014-Oct-23 09:08N 49°11' W 122°55'0 0.0
2014-Oct-23 08:33N 49°11' W 122°55'0 0.0
2014-Oct-23 07:33N 49°11' W 122°55'0 0.0
2014-Oct-23 06:33N 49°11' W 122°55'7 7.3
2014-Oct-23 05:33N 49°07' W 123°04'9 9.3
2014-Oct-23 04:33N 49°06' W 123°18'1010.4
2014-Oct-23 03:33N 48°57' W 123°10'1212.2
2014-Oct-23 02:33N 48°46' W 123°01'1111.6
2014-Oct-23 01:33N 48°38' W 123°14'1413.5
2014-Oct-23 00:33N 48°25' W 123°11'1111.1
2014-Oct-22 23:33N 48°19' W 123°25'10 9.9
2014-Oct-22 22:33N 48°13' W 123°37'1211.1
2014-Oct-22 21:28N 48°13' W 123°55'1314.1
2014-Oct-22 20:34N 48°19' W 124°13'1414.3
2014-Oct-22 19:33N 48°25' W 124°32'1313.0
2014-Oct-22 18:33N 48°29' W 124°51'1412.1
2014-Oct-22 17:25N 48°22' W 125°09'1112.0
2014-Oct-22 16:31N 48°17' W 125°24'  
Track history (hours):
 
Tides and Currents Weather Stations Pressure Air Temp Water Temp Dewpoint Dewpoint Depression Visibility Wind Speed Wind Dir Waves Ship Positions

Marselisborg

Last reported at 2014-Oct-23 21:32 UTC. Time now 2014-Oct-23 22:05 UTC.
Position N 49°09' W 123°32'.

Length 138 m; draft 6.6 m.

Type: Ship. MMSI: 636092036.

Date/timePositionNaut miles runAvg speedWind from/ knotsBaromVisibWave heightAir tempDewpointWater temp
2014-Oct-23 21:32N 49°09' W 123°32'1111.3
2014-Oct-23 20:33N 49°08' W 123°15'10 9.7
2014-Oct-23 19:33N 49°09' W 123°00'4 3.5
2014-Oct-23 18:24N 49°11' W 122°55'0 0.0
2014-Oct-23 17:24N 49°11' W 122°55'0 0.0
2014-Oct-23 16:18N 49°11' W 122°55'0 0.0
2014-Oct-23 15:06N 49°11' W 122°55'0 0.0
2014-Oct-23 14:30N 49°11' W 122°55'0 0.0
2014-Oct-23 13:30N 49°11' W 122°55'0 0.0
2014-Oct-23 12:30N 49°11' W 122°55'0 0.0
2014-Oct-23 09:08N 49°11' W 122°55'0 0.0
2014-Oct-23 08:33N 49°11' W 122°55'0 0.0
2014-Oct-23 07:33N 49°11' W 122°55'0 0.0
2014-Oct-23 06:33N 49°11' W 122°55'7 7.3
2014-Oct-23 05:33N 49°07' W 123°04'9 9.3
2014-Oct-23 04:33N 49°06' W 123°18'1010.4
2014-Oct-23 03:33N 48°57' W 123°10'1212.2
2014-Oct-23 02:33N 48°46' W 123°01'1111.6
2014-Oct-23 01:33N 48°38' W 123°14'1413.5
2014-Oct-23 00:33N 48°25' W 123°11'1111.1
2014-Oct-22 23:33N 48°19' W 123°25'10 9.9
2014-Oct-22 22:33N 48°13' W 123°37'1211.1
2014-Oct-22 21:28N 48°13' W 123°55'1314.1
2014-Oct-22 20:34N 48°19' W 124°13'1414.3
2014-Oct-22 19:33N 48°25' W 124°32'1313.0
2014-Oct-22 18:33N 48°29' W 124°51'1412.1
2014-Oct-22 17:25N 48°22' W 125°09'1112.0
2014-Oct-22 16:31N 48°17' W 125°24'  

Dump ship's entire track history